| time (UTC) | temp F | wind direction | speed knots | gust knots | rain 1hr in | rain 24hr in | rain mn in | humidity % | barometer mb |
| 20260504081043 | 46 | 81 | 0.0 | 0.0 | 0.00 | 0.00 | 0.00 | 87 | 1002.5 |
| 20260504050015 | 49 | 79 | 0.0 | 0.0 | 0.00 | 0.00 | 0.00 | 82 | 1004.1 |
| 20260504045005 | 49 | 86 | 0.0 | 0.0 | 0.00 | 0.00 | 0.00 | 82 | 1003.8 |
| 20260504044037 | 49 | 90 | 0.0 | 0.0 | 0.00 | 0.00 | 0.00 | 81 | 1003.8 |
| 20260504043042 | 49 | 93 | 0.0 | 0.0 | 0.00 | 0.00 | 0.00 | 82 | 1003.8 |
| 20260504042006 | 49 | 88 | 0.0 | 0.0 | 0.00 | 0.00 | 0.00 | 79 | 1004.0 |
| 20260504041029 | 49 | 79 | 0.0 | 0.0 | 0.00 | 0.00 | 0.00 | 76 | 1003.8 |
| 20260504040033 | 49 | 83 | 0.0 | 0.0 | 0.00 | 0.00 | 0.00 | 77 | 1003.4 |
| 20260504035025 | 49 | 88 | 0.0 | 0.0 | 0.00 | 0.00 | 0.00 | 77 | 1003.7 |
| 20260504034041 | 49 | 90 | 0.0 | 0.0 | 0.00 | 0.00 | 0.00 | 74 | 1003.9 |
| 20260504032005 | 49 | 95 | 0.0 | 0.0 | 0.00 | 0.00 | 0.00 | 72 | 1003.5 |
| 20260504031040 | 49 | 91 | 0.0 | 0.0 | 0.00 | 0.00 | 0.00 | 75 | 1003.5 |
| 20260504030013 | 49 | 52 | 0.9 | 1.7 | 0.00 | 0.00 | 0.00 | 74 | 1003.6 |
| 20260504025035 | 49 | 90 | 0.0 | 0.0 | 0.00 | 0.00 | 0.00 | 72 | 1003.7 |
| 20260504024036 | 49 | 97 | 0.0 | 0.0 | 0.00 | 0.00 | 0.00 | 72 | 1003.7 |
| 20260504023011 | 49 | 89 | 0.0 | 0.0 | 0.00 | 0.00 | 0.00 | 69 | 1003.4 |
| 20260504022015 | 49 | 93 | 0.0 | 0.0 | 0.00 | 0.00 | 0.00 | 68 | 1003.4 |
| 20260504021032 | 49 | 88 | 0.0 | 0.0 | 0.00 | 0.00 | 0.00 | 68 | 1003.4 |
| 20260504020044 | 49 | 91 | 0.0 | 0.0 | 0.00 | 0.00 | 0.00 | 67 | 1003.4 |
| 20260504015009 | 49 | 93 | 0.0 | 0.0 | 0.00 | 0.00 | 0.00 | 65 | 1003.3 |
| 20260504014033 | 49 | 84 | 0.0 | 0.0 | 0.00 | 0.00 | 0.00 | 65 | 1003.3 |
| 20260504012037 | 50 | 92 | 0.0 | 0.0 | 0.00 | 0.00 | 0.00 | 61 | 1003.3 |
| 20260504010040 | 51 | 97 | 0.0 | 0.0 | 0.00 | 0.00 | 0.00 | 59 | 1003.1 |
| 20260504005045 | 52 | 93 | 0.0 | 0.0 | 0.00 | 0.00 | 0.00 | 59 | 1003.3 |
| 20260504004009 | 53 | 77 | 0.9 | 1.7 | 0.00 | 0.00 | 0.00 | 56 | 1003.3 |
| 20260504003022 | 53 | 67 | 0.9 | 1.7 | 0.00 | 0.00 | 0.00 | 51 | 1003.3 |
| 20260504002027 | 54 | 76 | 0.0 | 0.0 | 0.00 | 0.00 | 0.00 | 50 | 1003.0 |
| 20260504000031 | 55 | 80 | 0.0 | 0.0 | 0.00 | 0.00 | 0.00 | 47 | 1003.3 |
| 20260503235039 | 56 | 66 | 0.9 | 1.7 | 0.00 | 0.00 | 0.00 | 46 | 1002.9 |
| 20260503234028 | 56 | 88 | 0.0 | 0.0 | 0.00 | 0.00 | 0.00 | 45 | 1003.2 |
| 20260503231017 | 59 | 98 | 0.9 | 1.7 | 0.00 | 0.00 | 0.00 | 40 | 1003.3 |
| 20260503230025 | 60 | 75 | 0.9 | 1.7 | 0.00 | 0.00 | 0.00 | 41 | 1003.4 |
| 20260503224003 | 61 | 91 | 0.9 | 1.7 | 0.00 | 0.00 | 0.00 | 40 | 1003.7 |
| 20260503223046 | 61 | 92 | 0.0 | 0.0 | 0.00 | 0.00 | 0.00 | 46 | 1003.5 |
| 20260503222031 | 61 | 75 | 0.0 | 0.0 | 0.00 | 0.00 | 0.00 | 39 | 1003.8 |
| 20260503215011 | 62 | 72 | 0.9 | 1.7 | 0.00 | 0.00 | 0.00 | 39 | 1003.9 |
| 20260503214020 | 62 | 56 | 0.9 | 2.6 | 0.00 | 0.00 | 0.00 | 37 | 1004.0 |
| 20260503213033 | 62 | 31 | 1.7 | 1.7 | 0.00 | 0.00 | 0.00 | 37 | 1003.6 |
| 20260503212008 | 61 | 85 | 0.9 | 1.7 | 0.00 | 0.00 | 0.00 | 39 | 1003.6 |
| 20260503211035 | 63 | 130 | 1.7 | 1.7 | 0.00 | 0.00 | 0.00 | 38 | 1003.8 |
| 20260503210009 | 62 | 109 | 0.0 | 0.0 | 0.00 | 0.00 | 0.00 | 39 | 1003.9 |
| 20260503205043 | 62 | 93 | 0.9 | 1.7 | 0.00 | 0.00 | 0.00 | 36 | 1004.1 |
| 20260503203023 | 63 | 89 | 0.0 | 0.0 | 0.00 | 0.00 | 0.00 | 35 | 1004.5 |
| 20260503201041 | 64 | 108 | 0.0 | 0.0 | 0.00 | 0.00 | 0.00 | 35 | 1004.5 |
| 20260503195042 | 64 | 134 | 0.9 | 1.7 | 0.00 | 0.00 | 0.00 | 35 | 1005.1 |
| 20260503193018 | 63 | 113 | 2.6 | 4.3 | 0.00 | 0.00 | 0.00 | 34 | 1005.6 |
| 20260503192015 | 64 | 200 | 1.7 | 2.6 | 0.00 | 0.00 | 0.00 | 35 | 1005.7 |
| 20260503191010 | 62 | 64 | 0.9 | 1.7 | 0.00 | 0.00 | 0.00 | 40 | 1005.9 |
| 20260503190031 | 62 | 122 | 0.0 | 0.0 | 0.00 | 0.00 | 0.00 | 36 | 1006.0 |
| 20260503185035 | 63 | 146 | 1.7 | 2.6 | 0.00 | 0.00 | 0.00 | 43 | 1006.4 |
| 20260503184007 | 63 | 127 | 0.9 | 1.7 | 0.00 | 0.00 | 0.00 | 38 | 1006.5 |
| 20260503183020 | 61 | 98 | 0.9 | 1.7 | 0.00 | 0.00 | 0.00 | 37 | 1006.8 |
| 20260503181028 | 62 | 110 | 0.9 | 1.7 | 0.00 | 0.00 | 0.00 | 39 | 1006.9 |
| 20260503180026 | 63 | 121 | 1.7 | 2.6 | 0.00 | 0.00 | 0.00 | 36 | 1006.9 |
| 20260503175012 | 61 | 93 | 1.7 | 2.6 | 0.00 | 0.00 | 0.00 | 39 | 1007.1 |
| 20260503173025 | 59 | 75 | 3.5 | 4.3 | 0.00 | 0.00 | 0.00 | 39 | 1007.2 |
| 20260503172023 | 60 | 137 | 1.7 | 1.7 | 0.00 | 0.00 | 0.00 | 36 | 1007.4 |
| 20260503171031 | 60 | 99 | 0.0 | 0.0 | 0.00 | 0.00 | 0.00 | 44 | 1007.6 |
| 20260503131020 | 46 | 133 | 0.9 | 1.7 | 0.00 | 0.00 | 0.00 | 75 | 1008.7 |